Year,Month,Day,Hour,Minute,Value (Times are PST for temperature in C)
2015,07,07,00,00,16.10
2015,07,07,00,01,16.10
2015,07,07,00,02,16.00
2015,07,07,00,03,16.00
2015,07,07,00,04,15.90
2015,07,07,00,05,15.90
2015,07,07,00,06,15.90
2015,07,07,00,07,15.90
2015,07,07,00,08,15.90
2015,07,07,00,09,15.90
2015,07,07,00,10,15.80
2015,07,07,00,11,15.80
2015,07,07,00,12,15.90
2015,07,07,00,13,15.80
2015,07,07,00,14,15.80
2015,07,07,00,15,15.80
2015,07,07,00,16,15.80
2015,07,07,00,17,15.80
2015,07,07,00,18,15.80
2015,07,07,00,19,15.80
2015,07,07,00,20,15.80
2015,07,07,00,21,15.80
2015,07,07,00,22,15.80
2015,07,07,00,23,15.80
2015,07,07,00,24,15.80
2015,07,07,00,25,15.80
2015,07,07,00,26,15.80
2015,07,07,00,27,15.80
2015,07,07,00,28,15.80
2015,07,07,00,29,15.80
2015,07,07,00,30,15.80
2015,07,07,00,31,15.80
2015,07,07,00,32,15.80
2015,07,07,00,33,15.80
2015,07,07,00,34,15.80
2015,07,07,00,35,15.80
2015,07,07,00,36,15.70
2015,07,07,00,37,15.70
2015,07,07,00,38,15.70
2015,07,07,00,39,15.70
2015,07,07,00,40,15.70
2015,07,07,00,41,15.70
2015,07,07,00,42,15.70
2015,07,07,00,43,15.70
2015,07,07,00,44,15.70
2015,07,07,00,45,15.60
2015,07,07,00,46,15.60
2015,07,07,00,47,15.60
2015,07,07,00,48,15.60
2015,07,07,00,49,15.60
2015,07,07,00,50,15.60
2015,07,07,00,51,15.60
2015,07,07,00,52,15.50
2015,07,07,00,53,15.50
2015,07,07,00,54,15.40
2015,07,07,00,55,15.40
2015,07,07,00,56,15.40
2015,07,07,00,57,15.40
2015,07,07,00,58,15.40
2015,07,07,00,59,15.40
2015,07,07,01,00,15.40
2015,07,07,01,01,15.40
2015,07,07,01,02,15.50
2015,07,07,01,03,15.50
2015,07,07,01,04,15.50
2015,07,07,01,05,15.50
2015,07,07,01,06,15.50
2015,07,07,01,07,15.50
2015,07,07,01,08,15.50
2015,07,07,01,09,15.40
2015,07,07,01,10,15.40
2015,07,07,01,11,15.40
2015,07,07,01,12,15.40
2015,07,07,01,13,15.40
2015,07,07,01,14,15.30
2015,07,07,01,15,15.30
2015,07,07,01,16,15.30
2015,07,07,01,17,15.30
2015,07,07,01,18,15.30
2015,07,07,01,19,15.30
2015,07,07,01,20,15.30
2015,07,07,01,21,15.30
2015,07,07,01,22,15.30
2015,07,07,01,23,15.30
2015,07,07,01,24,15.30
2015,07,07,01,25,15.40
2015,07,07,01,26,15.40
2015,07,07,01,27,15.40
2015,07,07,01,28,15.40
2015,07,07,01,29,15.40
2015,07,07,01,30,15.40
2015,07,07,01,31,15.50
2015,07,07,01,32,15.50
2015,07,07,01,33,15.50
2015,07,07,01,34,15.50
2015,07,07,01,35,15.40
2015,07,07,01,36,15.40
2015,07,07,01,37,15.40
2015,07,07,01,38,15.40
2015,07,07,01,39,15.40
2015,07,07,01,40,15.40
2015,07,07,01,41,15.40
2015,07,07,01,42,15.40
2015,07,07,01,43,15.40
2015,07,07,01,44,15.40
2015,07,07,01,45,15.40
2015,07,07,01,46,15.40
2015,07,07,01,47,15.40
2015,07,07,01,48,15.40
2015,07,07,01,49,15.40
2015,07,07,01,50,15.40
2015,07,07,01,51,15.40
2015,07,07,01,52,15.40
2015,07,07,01,53,15.40
2015,07,07,01,54,15.40
2015,07,07,01,55,15.30
2015,07,07,01,56,15.30
2015,07,07,01,57,15.30
2015,07,07,01,58,15.30
2015,07,07,01,59,15.30
2015,07,07,02,00,15.30
2015,07,07,02,01,15.30
2015,07,07,02,02,15.30
2015,07,07,02,03,15.30
2015,07,07,02,04,15.30
2015,07,07,02,05,15.30
2015,07,07,02,06,15.30
2015,07,07,02,07,15.30
2015,07,07,02,08,15.30
2015,07,07,02,09,15.30
2015,07,07,02,10,15.30
2015,07,07,02,11,15.30
2015,07,07,02,12,15.30
2015,07,07,02,13,15.30
2015,07,07,02,14,15.30
2015,07,07,02,15,15.30
2015,07,07,02,16,15.30
2015,07,07,02,17,15.20
2015,07,07,02,18,15.20
2015,07,07,02,19,15.20
2015,07,07,02,20,15.20
2015,07,07,02,21,15.20
2015,07,07,02,22,15.20
2015,07,07,02,23,15.20
2015,07,07,02,24,15.20
2015,07,07,02,25,15.20
2015,07,07,02,26,15.20
2015,07,07,02,27,15.20
2015,07,07,02,28,15.20
2015,07,07,02,29,15.20
2015,07,07,02,30,15.20
2015,07,07,02,31,15.20
2015,07,07,02,32,15.20
2015,07,07,02,33,15.10
2015,07,07,02,34,15.10
2015,07,07,02,35,15.20
2015,07,07,02,36,15.10
2015,07,07,02,37,15.10
2015,07,07,02,38,15.10
2015,07,07,02,39,15.10
2015,07,07,02,40,15.10
2015,07,07,02,41,15.10
2015,07,07,02,42,15.10
2015,07,07,02,43,15.10
2015,07,07,02,44,15.10
2015,07,07,02,45,15.10
2015,07,07,02,46,15.00
2015,07,07,02,47,15.00
2015,07,07,02,48,15.00
2015,07,07,02,49,15.00
2015,07,07,02,50,15.00
2015,07,07,02,51,15.00
2015,07,07,02,52,15.00
2015,07,07,02,53,14.90
2015,07,07,02,54,14.90
2015,07,07,02,55,14.90
2015,07,07,02,56,14.90
2015,07,07,02,57,14.90
2015,07,07,02,58,14.90
2015,07,07,02,59,14.90
2015,07,07,03,00,14.90
2015,07,07,03,01,14.90
2015,07,07,03,02,14.90
2015,07,07,03,03,14.90
2015,07,07,03,04,14.90
2015,07,07,03,05,14.90
2015,07,07,03,06,14.90
2015,07,07,03,07,14.90
2015,07,07,03,08,14.90
2015,07,07,03,09,14.90
2015,07,07,03,10,14.90
2015,07,07,03,11,14.90
2015,07,07,03,12,14.90
2015,07,07,03,13,14.80
2015,07,07,03,14,14.80
2015,07,07,03,15,14.80
2015,07,07,03,16,14.80
2015,07,07,03,17,14.80
2015,07,07,03,18,14.80
2015,07,07,03,19,14.80
2015,07,07,03,20,14.80
2015,07,07,03,21,14.80
2015,07,07,03,22,14.80
2015,07,07,03,23,14.80
2015,07,07,03,24,14.80
2015,07,07,03,25,14.80
2015,07,07,03,26,14.80
2015,07,07,03,27,14.80
2015,07,07,03,28,14.80
2015,07,07,03,29,14.80
2015,07,07,03,30,14.80
2015,07,07,03,31,14.80
2015,07,07,03,32,14.90
2015,07,07,03,33,14.90
2015,07,07,03,34,14.90
2015,07,07,03,35,14.90
2015,07,07,03,36,14.90
2015,07,07,03,37,14.90
2015,07,07,03,38,14.90
2015,07,07,03,39,14.90
2015,07,07,03,40,14.90
2015,07,07,03,41,14.90
2015,07,07,03,42,14.80
2015,07,07,03,43,14.80
2015,07,07,03,44,14.80
2015,07,07,03,45,14.80
2015,07,07,03,46,14.80
2015,07,07,03,47,14.80
2015,07,07,03,48,14.80
2015,07,07,03,49,14.80
2015,07,07,03,50,14.80
2015,07,07,03,51,14.70
2015,07,07,03,52,14.70
2015,07,07,03,53,14.70
2015,07,07,03,54,14.70
2015,07,07,03,55,14.70
2015,07,07,03,56,14.70
2015,07,07,03,57,14.70
2015,07,07,03,58,14.70
2015,07,07,03,59,14.60
2015,07,07,04,00,14.60
2015,07,07,04,01,14.60
2015,07,07,04,02,14.60
2015,07,07,04,03,14.60
2015,07,07,04,04,14.60
2015,07,07,04,05,14.60
2015,07,07,04,06,14.60
2015,07,07,04,07,14.60
2015,07,07,04,08,14.60
2015,07,07,04,09,14.60
2015,07,07,04,10,14.60
2015,07,07,04,11,14.60
2015,07,07,04,12,14.60
2015,07,07,04,13,14.60
2015,07,07,04,14,14.60
2015,07,07,04,15,14.60
2015,07,07,04,16,14.60
2015,07,07,04,17,14.60
2015,07,07,04,18,14.60
2015,07,07,04,19,14.60
2015,07,07,04,20,14.60
2015,07,07,04,21,14.60
2015,07,07,04,22,14.60
2015,07,07,04,23,14.60
2015,07,07,04,24,14.50
2015,07,07,04,25,14.50
2015,07,07,04,26,14.50
2015,07,07,04,27,14.50
2015,07,07,04,28,14.50
2015,07,07,04,29,14.50
2015,07,07,04,30,14.50
2015,07,07,04,31,14.50
2015,07,07,04,32,14.50
2015,07,07,04,33,14.40
2015,07,07,04,34,14.40
2015,07,07,04,35,14.40
2015,07,07,04,36,14.40
2015,07,07,04,37,14.40
2015,07,07,04,38,14.40
2015,07,07,04,39,14.40
2015,07,07,04,40,14.40
2015,07,07,04,41,14.40
2015,07,07,04,42,14.40
2015,07,07,04,43,14.40
2015,07,07,04,44,14.40
2015,07,07,04,45,14.40
2015,07,07,04,46,14.40
2015,07,07,04,47,14.40
2015,07,07,04,48,14.40
2015,07,07,04,49,14.40
2015,07,07,04,50,14.30
2015,07,07,04,51,14.30
2015,07,07,04,52,14.30
2015,07,07,04,53,14.30
2015,07,07,04,54,14.30
2015,07,07,04,55,14.30
2015,07,07,04,56,14.30
2015,07,07,04,57,14.30
2015,07,07,04,58,14.30
2015,07,07,04,59,14.30
2015,07,07,05,00,14.30
2015,07,07,05,01,14.30
2015,07,07,05,02,14.20
2015,07,07,05,03,14.20
2015,07,07,05,04,14.20
2015,07,07,05,05,14.20
2015,07,07,05,06,14.20
2015,07,07,05,07,14.20
2015,07,07,05,08,14.20
2015,07,07,05,09,14.20
2015,07,07,05,10,14.20
2015,07,07,05,11,14.20
2015,07,07,05,12,14.10
2015,07,07,05,13,14.10
2015,07,07,05,14,14.10
2015,07,07,05,15,14.10
2015,07,07,05,16,14.10
2015,07,07,05,17,14.10
2015,07,07,05,18,14.10
2015,07,07,05,19,14.10
2015,07,07,05,20,14.10
2015,07,07,05,21,14.10
2015,07,07,05,22,14.10
2015,07,07,05,23,14.10
2015,07,07,05,24,14.10
2015,07,07,05,25,14.10
2015,07,07,05,26,14.10
2015,07,07,05,27,14.00
2015,07,07,05,28,14.10
2015,07,07,05,29,14.10
2015,07,07,05,30,14.10
2015,07,07,05,31,14.10
2015,07,07,05,32,14.10
2015,07,07,05,33,14.10
2015,07,07,05,34,14.10
2015,07,07,05,35,14.20
2015,07,07,05,36,14.20
2015,07,07,05,37,14.20
2015,07,07,05,38,14.20
2015,07,07,05,39,14.20
2015,07,07,05,40,14.20
2015,07,07,05,41,14.20
2015,07,07,05,42,14.20
2015,07,07,05,43,14.20
2015,07,07,05,44,14.20
2015,07,07,05,45,14.20
2015,07,07,05,46,14.20
2015,07,07,05,47,14.20
2015,07,07,05,48,14.20
2015,07,07,05,49,14.20
2015,07,07,05,50,14.20
2015,07,07,05,51,14.20
2015,07,07,05,52,14.20
2015,07,07,05,53,14.20
2015,07,07,05,54,14.20
2015,07,07,05,55,14.20
2015,07,07,05,56,14.20
2015,07,07,05,57,14.20
2015,07,07,05,58,14.20
2015,07,07,05,59,14.20
2015,07,07,06,00,14.20
2015,07,07,06,01,14.20
2015,07,07,06,02,14.30
2015,07,07,06,03,14.30
2015,07,07,06,04,14.30
2015,07,07,06,05,14.30
2015,07,07,06,06,14.30
2015,07,07,06,07,14.30
2015,07,07,06,08,14.30
2015,07,07,06,09,14.30
2015,07,07,06,10,14.30
2015,07,07,06,11,14.40
2015,07,07,06,12,14.40
2015,07,07,06,13,14.40
2015,07,07,06,14,14.40
2015,07,07,06,15,14.40
2015,07,07,06,16,14.40
2015,07,07,06,17,14.40
2015,07,07,06,18,14.40
2015,07,07,06,19,14.40
2015,07,07,06,20,14.40
2015,07,07,06,21,14.40
2015,07,07,06,22,14.50
2015,07,07,06,23,14.50
2015,07,07,06,24,14.50
2015,07,07,06,25,14.50
2015,07,07,06,26,14.50
2015,07,07,06,27,14.50
2015,07,07,06,28,14.50
2015,07,07,06,29,14.60
2015,07,07,06,30,14.60
2015,07,07,06,31,14.60
2015,07,07,06,32,14.60
2015,07,07,06,33,14.60
2015,07,07,06,34,14.60
2015,07,07,06,35,14.60
2015,07,07,06,36,14.60
2015,07,07,06,37,14.60
2015,07,07,06,38,14.70
2015,07,07,06,39,14.70
2015,07,07,06,40,14.70
2015,07,07,06,41,14.70
2015,07,07,06,42,14.70
2015,07,07,06,43,14.70
2015,07,07,06,44,14.70
2015,07,07,06,45,14.70
2015,07,07,06,46,14.70
2015,07,07,06,47,14.70
2015,07,07,06,48,14.70
2015,07,07,06,49,14.80
2015,07,07,06,50,14.80
2015,07,07,06,51,14.80
2015,07,07,06,52,14.80
2015,07,07,06,53,14.80
2015,07,07,06,54,14.90
2015,07,07,06,55,14.90
2015,07,07,06,56,14.90
2015,07,07,06,57,14.90
2015,07,07,06,58,15.00
2015,07,07,06,59,15.00
2015,07,07,07,00,15.00
2015,07,07,07,01,15.10
2015,07,07,07,02,15.10
2015,07,07,07,03,15.10
2015,07,07,07,04,15.10
2015,07,07,07,05,15.10
2015,07,07,07,06,15.20
2015,07,07,07,07,15.20
2015,07,07,07,08,15.20
2015,07,07,07,09,15.20
2015,07,07,07,10,15.30
2015,07,07,07,11,15.30
2015,07,07,07,12,15.30
2015,07,07,07,13,15.30
2015,07,07,07,14,15.40
2015,07,07,07,15,15.40
2015,07,07,07,16,15.50
2015,07,07,07,17,15.50
2015,07,07,07,18,15.50
2015,07,07,07,19,15.60
2015,07,07,07,20,15.60
2015,07,07,07,21,15.60
2015,07,07,07,22,15.70
2015,07,07,07,23,15.70
2015,07,07,07,24,15.80
2015,07,07,07,25,15.80
2015,07,07,07,26,15.80
2015,07,07,07,27,15.90
2015,07,07,07,28,15.90
2015,07,07,07,29,16.00
2015,07,07,07,30,16.00
2015,07,07,07,31,16.10
2015,07,07,07,32,16.10
2015,07,07,07,33,16.10
2015,07,07,07,34,16.20
2015,07,07,07,35,16.30
2015,07,07,07,36,16.30
2015,07,07,07,37,16.40
2015,07,07,07,38,16.40
2015,07,07,07,39,16.50
2015,07,07,07,40,16.60
2015,07,07,07,41,16.60
2015,07,07,07,42,16.70
2015,07,07,07,43,16.80
2015,07,07,07,44,16.80
2015,07,07,07,45,16.90
2015,07,07,07,46,16.90
2015,07,07,07,47,17.00
2015,07,07,07,48,17.00
2015,07,07,07,49,17.10
2015,07,07,07,50,17.10
2015,07,07,07,51,17.10
2015,07,07,07,52,17.10
2015,07,07,07,53,17.20
2015,07,07,07,54,17.20
2015,07,07,07,55,17.20
2015,07,07,07,56,17.20
2015,07,07,07,57,17.30
2015,07,07,07,58,17.30
2015,07,07,07,59,17.30
2015,07,07,08,00,17.30
2015,07,07,08,01,17.40
2015,07,07,08,02,17.40
2015,07,07,08,03,17.50
2015,07,07,08,04,17.60
2015,07,07,08,05,17.60
2015,07,07,08,06,17.70
2015,07,07,08,07,17.70
2015,07,07,08,08,17.80
2015,07,07,08,09,17.80
2015,07,07,08,10,17.90
2015,07,07,08,11,18.00
2015,07,07,08,12,18.00
2015,07,07,08,13,18.10
2015,07,07,08,14,18.10
2015,07,07,08,15,18.20
2015,07,07,08,16,18.20
2015,07,07,08,17,18.30
2015,07,07,08,18,18.40
2015,07,07,08,19,18.40
2015,07,07,08,20,18.50
2015,07,07,08,21,18.50
2015,07,07,08,22,18.60
2015,07,07,08,23,18.60
2015,07,07,08,24,18.70
2015,07,07,08,25,18.70
2015,07,07,08,26,18.70
2015,07,07,08,27,18.70
2015,07,07,08,28,18.80
2015,07,07,08,29,18.80
2015,07,07,08,30,18.80
2015,07,07,08,31,18.80
2015,07,07,08,32,18.80
2015,07,07,08,33,18.80
2015,07,07,08,34,18.80
2015,07,07,08,35,18.80
2015,07,07,08,36,18.80
2015,07,07,08,37,18.80
2015,07,07,08,38,18.80
2015,07,07,08,39,18.80
2015,07,07,08,40,18.80
2015,07,07,08,41,18.80
2015,07,07,08,42,18.90
2015,07,07,08,43,18.90
2015,07,07,08,44,18.90
2015,07,07,08,45,19.00
2015,07,07,08,46,19.00
2015,07,07,08,47,19.10
2015,07,07,08,48,19.10
2015,07,07,08,49,19.20
2015,07,07,08,50,19.20
2015,07,07,08,51,19.30
2015,07,07,08,52,19.30
2015,07,07,08,53,19.30
2015,07,07,08,54,19.30
2015,07,07,08,55,19.30
2015,07,07,08,56,19.30
2015,07,07,08,57,19.30
2015,07,07,08,58,19.40
2015,07,07,08,59,19.40
2015,07,07,09,00,19.40
2015,07,07,09,01,19.40
2015,07,07,09,02,19.40
2015,07,07,09,03,19.40
2015,07,07,09,04,19.40
2015,07,07,09,05,19.40
2015,07,07,09,06,19.50
2015,07,07,09,07,19.50
2015,07,07,09,08,19.50
2015,07,07,09,09,19.60
2015,07,07,09,10,19.70
2015,07,07,09,11,19.70
2015,07,07,09,12,19.70
2015,07,07,09,13,19.80
2015,07,07,09,14,19.80
2015,07,07,09,15,19.80
2015,07,07,09,16,19.80
2015,07,07,09,17,19.80
2015,07,07,09,18,19.80
2015,07,07,09,19,19.80
2015,07,07,09,20,19.80
2015,07,07,09,21,19.80
2015,07,07,09,22,19.80
2015,07,07,09,23,19.80
2015,07,07,09,24,19.80
2015,07,07,09,25,19.90
2015,07,07,09,26,19.90
2015,07,07,09,27,20.00
2015,07,07,09,28,20.00
2015,07,07,09,29,20.10
2015,07,07,09,30,20.10
2015,07,07,09,31,20.20
2015,07,07,09,32,20.20
2015,07,07,09,33,20.30
2015,07,07,09,34,20.30
2015,07,07,09,35,20.30
2015,07,07,09,36,20.40
2015,07,07,09,37,20.40
2015,07,07,09,38,20.30
2015,07,07,09,39,20.30
2015,07,07,09,40,20.30
2015,07,07,09,41,20.30
2015,07,07,09,42,20.30
2015,07,07,09,43,20.20
2015,07,07,09,44,20.30
2015,07,07,09,45,20.30
2015,07,07,09,46,20.30
2015,07,07,09,47,20.30
2015,07,07,09,48,20.40
2015,07,07,09,49,20.30
2015,07,07,09,50,20.30
2015,07,07,09,51,20.30
2015,07,07,09,52,20.30
2015,07,07,09,53,20.30
2015,07,07,09,54,20.30
2015,07,07,09,55,20.30
2015,07,07,09,56,20.30
2015,07,07,09,57,20.30
2015,07,07,09,58,20.40
2015,07,07,09,59,20.40
2015,07,07,10,00,20.40
2015,07,07,10,01,20.50
2015,07,07,10,02,20.60
2015,07,07,10,03,20.60
2015,07,07,10,04,20.60
2015,07,07,10,05,20.60
2015,07,07,10,06,20.70
2015,07,07,10,07,20.70
2015,07,07,10,08,20.80
2015,07,07,10,09,20.80
2015,07,07,10,10,20.80
2015,07,07,10,11,20.90
2015,07,07,10,12,20.90
2015,07,07,10,13,20.90
2015,07,07,10,14,20.90
2015,07,07,10,15,20.90
2015,07,07,10,16,20.90
2015,07,07,10,17,21.00
2015,07,07,10,18,21.00
2015,07,07,10,19,21.00
2015,07,07,10,20,21.00
2015,07,07,10,21,21.00
2015,07,07,10,22,21.10
2015,07,07,10,23,21.20
2015,07,07,10,24,21.20
2015,07,07,10,25,21.20
2015,07,07,10,26,21.30
2015,07,07,10,27,21.20
2015,07,07,10,28,21.20
2015,07,07,10,29,21.10
2015,07,07,10,30,21.10
2015,07,07,10,31,21.00
2015,07,07,10,32,21.00
2015,07,07,10,33,21.00
2015,07,07,10,34,20.90
2015,07,07,10,35,20.90
2015,07,07,10,36,20.90
2015,07,07,10,37,20.80
2015,07,07,10,38,20.90
2015,07,07,10,39,20.90
2015,07,07,10,40,20.90
2015,07,07,10,41,21.00
2015,07,07,10,42,21.10
2015,07,07,10,43,21.10
2015,07,07,10,44,21.10
2015,07,07,10,45,21.20
2015,07,07,10,46,21.20
2015,07,07,10,47,21.30
2015,07,07,10,48,21.30
2015,07,07,10,49,21.30
2015,07,07,10,50,21.40
2015,07,07,10,51,21.40
2015,07,07,10,52,21.40
2015,07,07,10,53,21.40
2015,07,07,10,54,21.40
2015,07,07,10,55,21.40
2015,07,07,10,56,21.40
2015,07,07,10,57,21.30
2015,07,07,10,58,21.40
2015,07,07,10,59,21.40
2015,07,07,11,00,21.40
2015,07,07,11,01,21.40
2015,07,07,11,02,21.40
2015,07,07,11,03,21.40
2015,07,07,11,04,21.40
2015,07,07,11,05,21.40
2015,07,07,11,06,21.30
2015,07,07,11,07,21.30
2015,07,07,11,08,21.20
2015,07,07,11,09,21.20
2015,07,07,11,10,21.20
2015,07,07,11,11,21.10
2015,07,07,11,12,21.00
2015,07,07,11,13,20.90
2015,07,07,11,14,20.90
2015,07,07,11,15,20.90
2015,07,07,11,16,20.90
2015,07,07,11,17,20.90
2015,07,07,11,18,20.90
2015,07,07,11,19,20.90
2015,07,07,11,20,20.90
2015,07,07,11,21,20.90
2015,07,07,11,22,20.80
2015,07,07,11,23,20.80
2015,07,07,11,24,20.80
2015,07,07,11,25,20.70
2015,07,07,11,26,20.70
2015,07,07,11,27,20.70
2015,07,07,11,28,20.70
2015,07,07,11,29,20.60
2015,07,07,11,30,20.50
2015,07,07,11,31,20.50
2015,07,07,11,32,20.50
2015,07,07,11,33,20.50
2015,07,07,11,34,20.50
2015,07,07,11,35,20.50
2015,07,07,11,36,20.50
2015,07,07,11,37,20.50
2015,07,07,11,38,20.50
2015,07,07,11,39,20.60
2015,07,07,11,40,20.60
2015,07,07,11,41,20.70
2015,07,07,11,42,20.80
2015,07,07,11,43,20.80
2015,07,07,11,44,20.90
2015,07,07,11,45,20.90
2015,07,07,11,46,20.90
2015,07,07,11,47,20.90
2015,07,07,11,48,21.00
2015,07,07,11,49,21.00
2015,07,07,11,50,21.10
2015,07,07,11,51,21.10
2015,07,07,11,52,21.20
2015,07,07,11,53,21.20
2015,07,07,11,54,21.30
2015,07,07,11,55,21.30
2015,07,07,11,56,21.30
2015,07,07,11,57,21.40
2015,07,07,11,58,21.50
2015,07,07,11,59,21.60
2015,07,07,12,00,21.50
2015,07,07,12,01,21.50
2015,07,07,12,02,21.50
2015,07,07,12,03,21.50
2015,07,07,12,04,21.40
2015,07,07,12,05,21.40
2015,07,07,12,06,21.30
2015,07,07,12,07,21.30
2015,07,07,12,08,21.20
2015,07,07,12,09,21.20
2015,07,07,12,10,21.20
2015,07,07,12,11,21.20
2015,07,07,12,12,21.20
2015,07,07,12,13,21.20
2015,07,07,12,14,21.20
2015,07,07,12,15,21.20
2015,07,07,12,16,21.20
2015,07,07,12,17,21.20
2015,07,07,12,18,21.20
2015,07,07,12,19,21.20
2015,07,07,12,20,21.20
2015,07,07,12,21,21.20
2015,07,07,12,22,21.20
2015,07,07,12,23,21.20
2015,07,07,12,24,21.20
2015,07,07,12,25,21.30
2015,07,07,12,26,21.20
2015,07,07,12,27,21.20
2015,07,07,12,28,21.30
2015,07,07,12,29,21.40
2015,07,07,12,30,21.50
2015,07,07,12,31,21.60
2015,07,07,12,32,21.70
2015,07,07,12,33,21.80
2015,07,07,12,34,21.80
2015,07,07,12,35,21.80
2015,07,07,12,36,21.80
2015,07,07,12,37,21.80
2015,07,07,12,38,21.70
2015,07,07,12,39,21.80
2015,07,07,12,40,21.80
2015,07,07,12,41,21.80
2015,07,07,12,42,21.90
2015,07,07,12,43,21.80
2015,07,07,12,44,21.80
2015,07,07,12,45,21.80
2015,07,07,12,46,21.70
2015,07,07,12,47,21.70
2015,07,07,12,48,21.70
2015,07,07,12,49,21.70
2015,07,07,12,50,21.60
2015,07,07,12,51,21.60
2015,07,07,12,52,21.60
2015,07,07,12,53,21.70
2015,07,07,12,54,21.70
2015,07,07,12,55,21.80
2015,07,07,12,56,21.80
2015,07,07,12,57,21.90
2015,07,07,12,58,22.00
2015,07,07,12,59,22.10
2015,07,07,13,00,22.20
2015,07,07,13,01,22.30
2015,07,07,13,02,22.30
2015,07,07,13,03,22.40
2015,07,07,13,04,22.50
2015,07,07,13,05,22.50
2015,07,07,13,06,22.60
2015,07,07,13,07,22.60
2015,07,07,13,08,22.60
2015,07,07,13,09,22.50
2015,07,07,13,10,22.40
2015,07,07,13,11,22.30
2015,07,07,13,12,22.30
2015,07,07,13,13,22.30
2015,07,07,13,14,22.20
2015,07,07,13,15,22.10
2015,07,07,13,16,22.00
2015,07,07,13,17,21.90
2015,07,07,13,18,21.80
2015,07,07,13,19,21.80
2015,07,07,13,20,21.90
2015,07,07,13,21,21.90
2015,07,07,13,22,22.00
2015,07,07,13,23,22.10
2015,07,07,13,24,22.10
2015,07,07,13,25,22.20
2015,07,07,13,26,22.20
2015,07,07,13,27,22.30
2015,07,07,13,28,22.30
2015,07,07,13,29,22.30
2015,07,07,13,30,22.30
2015,07,07,13,31,22.30
2015,07,07,13,32,22.30
2015,07,07,13,33,22.30
2015,07,07,13,34,22.40
2015,07,07,13,35,22.50
2015,07,07,13,36,22.60
2015,07,07,13,37,22.70
2015,07,07,13,38,22.70
2015,07,07,13,39,22.70
2015,07,07,13,40,22.70
2015,07,07,13,41,22.70
2015,07,07,13,42,22.70
2015,07,07,13,43,22.70
2015,07,07,13,44,22.60
2015,07,07,13,45,22.60
2015,07,07,13,46,22.60
2015,07,07,13,47,22.60
2015,07,07,13,48,22.60
2015,07,07,13,49,22.70
2015,07,07,13,50,22.70
2015,07,07,13,51,22.70
2015,07,07,13,52,22.80
2015,07,07,13,53,22.80
2015,07,07,13,54,22.70
2015,07,07,13,55,22.80
2015,07,07,13,56,22.80
2015,07,07,13,57,22.80
2015,07,07,13,58,22.80
2015,07,07,13,59,22.80
2015,07,07,14,00,22.80
2015,07,07,14,01,22.80
2015,07,07,14,02,22.80
2015,07,07,14,03,22.80
2015,07,07,14,04,22.90
2015,07,07,14,05,22.90
2015,07,07,14,06,22.90
2015,07,07,14,07,23.00
2015,07,07,14,08,23.10
2015,07,07,14,09,23.10
2015,07,07,14,10,23.20
2015,07,07,14,11,23.20
2015,07,07,14,12,23.30
2015,07,07,14,13,23.30
2015,07,07,14,14,23.30
2015,07,07,14,15,23.30
2015,07,07,14,16,23.20
2015,07,07,14,17,23.20
2015,07,07,14,18,23.20
2015,07,07,14,19,23.20
2015,07,07,14,20,23.30
2015,07,07,14,21,23.30
2015,07,07,14,22,23.30
2015,07,07,14,23,23.30
2015,07,07,14,24,23.30
2015,07,07,14,25,23.20
2015,07,07,14,26,23.20
2015,07,07,14,27,23.10
2015,07,07,14,28,23.20
2015,07,07,14,29,23.10
2015,07,07,14,30,23.10
2015,07,07,14,31,23.00
2015,07,07,14,32,23.00
2015,07,07,14,33,23.00
2015,07,07,14,34,23.00
2015,07,07,14,35,23.10
2015,07,07,14,36,23.20
2015,07,07,14,37,23.30
2015,07,07,14,38,23.40
2015,07,07,14,39,23.40
2015,07,07,14,40,23.40
2015,07,07,14,41,23.50
2015,07,07,14,42,23.50
2015,07,07,14,43,23.50
2015,07,07,14,44,23.50
2015,07,07,14,45,23.50
2015,07,07,14,46,23.50
2015,07,07,14,47,23.50
2015,07,07,14,48,23.50
2015,07,07,14,49,23.50
2015,07,07,14,50,23.60
2015,07,07,14,51,23.70
2015,07,07,14,52,23.70
2015,07,07,14,53,23.70
2015,07,07,14,54,23.70
2015,07,07,14,55,23.70
2015,07,07,14,56,23.70
2015,07,07,14,57,23.70
2015,07,07,14,58,23.70
2015,07,07,14,59,23.70
2015,07,07,15,00,23.80
2015,07,07,15,01,23.80
2015,07,07,15,02,23.80
2015,07,07,15,03,23.90
2015,07,07,15,04,23.90
2015,07,07,15,05,23.90
2015,07,07,15,06,23.90
2015,07,07,15,07,23.90
2015,07,07,15,08,23.90
2015,07,07,15,09,23.80
2015,07,07,15,10,23.80
2015,07,07,15,11,23.80
2015,07,07,15,12,23.90
2015,07,07,15,13,23.90
2015,07,07,15,14,24.00
2015,07,07,15,15,24.00
2015,07,07,15,16,24.10
2015,07,07,15,17,24.20
2015,07,07,15,18,24.20
2015,07,07,15,19,24.30
2015,07,07,15,20,24.40
2015,07,07,15,21,24.50
2015,07,07,15,22,24.50
2015,07,07,15,23,24.60
2015,07,07,15,24,24.60
2015,07,07,15,25,24.60
2015,07,07,15,26,24.60
2015,07,07,15,27,24.60
2015,07,07,15,28,24.50
2015,07,07,15,29,24.50
2015,07,07,15,30,24.50
2015,07,07,15,31,24.40
2015,07,07,15,32,24.40
2015,07,07,15,33,24.30
2015,07,07,15,34,24.30
2015,07,07,15,35,24.30
2015,07,07,15,36,24.20
2015,07,07,15,37,24.20
2015,07,07,15,38,24.20
2015,07,07,15,39,24.20
2015,07,07,15,40,24.20
2015,07,07,15,41,24.30
2015,07,07,15,42,24.30
2015,07,07,15,43,24.30
2015,07,07,15,44,24.30
2015,07,07,15,45,24.30
2015,07,07,15,46,24.30
2015,07,07,15,47,24.40
2015,07,07,15,48,24.50
2015,07,07,15,49,24.60
2015,07,07,15,50,24.70
2015,07,07,15,51,24.70
2015,07,07,15,52,24.80
2015,07,07,15,53,24.80
2015,07,07,15,54,24.80
2015,07,07,15,55,24.80
2015,07,07,15,56,24.80
2015,07,07,15,57,24.80
2015,07,07,15,58,24.80
2015,07,07,15,59,24.80
2015,07,07,16,00,24.80
2015,07,07,16,01,24.80
2015,07,07,16,02,24.80
2015,07,07,16,03,24.80
2015,07,07,16,04,24.80
2015,07,07,16,05,24.90
2015,07,07,16,06,24.90
2015,07,07,16,07,25.00
2015,07,07,16,08,25.00
2015,07,07,16,09,25.10
2015,07,07,16,10,25.10
2015,07,07,16,11,25.10
2015,07,07,16,12,25.20
2015,07,07,16,13,25.20
2015,07,07,16,14,25.20
2015,07,07,16,15,25.30
2015,07,07,16,16,25.30
2015,07,07,16,17,25.40
2015,07,07,16,18,25.40
2015,07,07,16,19,25.40
2015,07,07,16,20,25.40
2015,07,07,16,21,25.40
2015,07,07,16,22,25.40
2015,07,07,16,23,25.40
2015,07,07,16,24,25.50
2015,07,07,16,25,25.50
2015,07,07,16,26,25.60
2015,07,07,16,27,25.60
2015,07,07,16,28,25.70
2015,07,07,16,29,25.70
2015,07,07,16,30,25.80
2015,07,07,16,31,25.80
2015,07,07,16,32,25.80
2015,07,07,16,33,25.80
2015,07,07,16,34,25.80
2015,07,07,16,35,25.80
2015,07,07,16,36,25.80
2015,07,07,16,37,25.80
2015,07,07,16,38,25.80
2015,07,07,16,39,25.80
2015,07,07,16,40,25.80
2015,07,07,16,41,25.80
2015,07,07,16,42,25.80
2015,07,07,16,43,25.80
2015,07,07,16,44,25.80
2015,07,07,16,45,25.80
2015,07,07,16,46,25.90
2015,07,07,16,47,25.90
2015,07,07,16,48,25.90
2015,07,07,16,49,25.90
2015,07,07,16,50,25.90
2015,07,07,16,51,25.90
2015,07,07,16,52,25.90
2015,07,07,16,53,25.80
2015,07,07,16,54,25.80
2015,07,07,16,55,25.90
2015,07,07,16,56,25.90
2015,07,07,16,57,25.90
2015,07,07,16,58,25.80
2015,07,07,16,59,25.80
2015,07,07,17,00,25.90
2015,07,07,17,01,25.90
2015,07,07,17,02,25.90
2015,07,07,17,03,25.90
2015,07,07,17,04,25.90
2015,07,07,17,05,25.80
2015,07,07,17,06,25.80
2015,07,07,17,07,25.80
2015,07,07,17,08,25.80
2015,07,07,17,09,25.80
2015,07,07,17,10,25.80
2015,07,07,17,11,25.70
2015,07,07,17,12,25.70
2015,07,07,17,13,25.70
2015,07,07,17,14,25.70
2015,07,07,17,15,25.60
2015,07,07,17,16,25.50
2015,07,07,17,17,25.50
2015,07,07,17,18,25.40
2015,07,07,17,19,25.40